BRIDGEPORT/SIKORSKI current weather conditions

sailwx.info

Wind from 040 at 3 knots

Air temperature 3.0° C
Visibility: greater than 8.7 NM
Dewpoint -4.0° C

Last reported at 2020-Jan-24 14:10 UTC.
Time now 2020-Jan-24 14:55 UTC

Location: N 41°10' W 073°08'.
View on Google Maps.

See reports from other nearby stations

  
Tides and Currents Weather Stations Pressure Air Temp Water Temp Dewpoint Dewpoint Depression Visibility Wind Speed Wind Dir Waves Ship Positions
date/time (UTC)wind fromknots sea level pressurealtimeterstation pressurevisibilityair tempwater tempwave heightnotes
2020-Jan-24 14:10 040 3 8.7 3.0
2020-Jan-24 14:05 010 4 7.8 3.0
2020-Jan-24 14:00 010 3 7.8 3.0
2020-Jan-24 13:55 020 3 7.8 2.0
2020-Jan-24 13:52 010 2 7.8 2.2
2020-Jan-24 13:50 010 3 7.8 2.0
2020-Jan-24 13:45 010 3 7.8 2.0
2020-Jan-24 13:40 020 3 7.8 2.0
2020-Jan-24 13:35 040 3 7.8 2.0
2020-Jan-24 13:30 040 3 7.8 1.0
2020-Jan-24 13:25 030 4 7.8 1.0
2020-Jan-24 13:20 040 4 7.8 1.0
2020-Jan-24 13:15 040 4 7.8 1.0
2020-Jan-24 13:10 040 3 7.8 1.0
2020-Jan-24 13:05 030 4 7.8 1.0
2020-Jan-24 13:00 030 4 7.8-0.0
2020-Jan-24 12:55 020 3 7.0-0.0
2020-Jan-24 12:52 020 4 6.9-0.6
2020-Jan-24 12:50 020 4 7.0-1.0
2020-Jan-24 12:45 010 3 7.0-1.0
2020-Jan-24 12:40 360 3 7.0-1.0
2020-Jan-24 12:35 350 4 7.0-2.0
2020-Jan-24 12:30 350 4 7.0-2.0
2020-Jan-24 12:25 350 3 7.0-2.0
2020-Jan-24 12:20 340 3 7.0-2.0
2020-Jan-24 12:15 7.0-2.0
2020-Jan-24 12:10 7.0-2.0
2020-Jan-24 12:05 7.8-2.0
2020-Jan-24 12:00 7.8-2.0
2020-Jan-24 11:55 7.8-1.0
2020-Jan-24 11:52 7.8-1.1
2020-Jan-24 11:50 7.8-1.0
2020-Jan-24 11:45 7.8-2.0
2020-Jan-24 11:40 7.8-1.0
2020-Jan-24 11:35 7.8-1.0
2020-Jan-24 11:30 010 3 7.8-1.0
2020-Jan-24 11:25 7.8-1.0
2020-Jan-24 11:20 7.8-1.0
2020-Jan-24 11:15 7.8-1.0
2020-Jan-24 11:10 7.8-1.0
2020-Jan-24 11:05 010 3 7.8-1.0
2020-Jan-24 11:00 7.8-1.0
2020-Jan-24 10:55 7.8-1.0
2020-Jan-24 10:52 7.8-1.1
2020-Jan-24 10:50 010 3 7.8-1.0
2020-Jan-24 10:45 7.8-1.0
2020-Jan-24 10:40 7.8-2.0
2020-Jan-24 10:35 7.0-2.0
2020-Jan-24 10:30 7.0-2.0
2020-Jan-24 10:25 7.0-2.0
2020-Jan-24 10:20 7.8-1.0
2020-Jan-24 10:15 7.8-1.0
2020-Jan-24 10:10 7.0-1.0
2020-Jan-24 10:05 360 3 7.0-1.0
2020-Jan-24 10:00 7.0-1.0
2020-Jan-24 09:55 7.8-0.0
2020-Jan-24 09:52 7.8-0.6
2020-Jan-24 09:50 7.8-1.0
2020-Jan-24 09:45 020 4 7.0-1.0
2020-Jan-24 09:40 010 3 7.0-1.0
2020-Jan-24 09:35 360 3 7.0-1.0
2020-Jan-24 09:30 360 3 7.0-1.0
2020-Jan-24 09:25 360 3 7.0-1.0
2020-Jan-24 09:20 7.0-1.0
2020-Jan-24 09:15 360 3 7.0-1.0
2020-Jan-24 09:10 360 3 7.0-1.0
2020-Jan-24 09:05 7.0-1.0
2020-Jan-24 09:00 7.0-1.0
2020-Jan-24 08:55 7.0-1.0
2020-Jan-24 08:52 6.9-0.6
2020-Jan-24 08:50 7.0-1.0
2020-Jan-24 08:45 7.0-1.0
2020-Jan-24 08:40 6.1-1.0
2020-Jan-24 08:35 050 3 6.1-1.0
2020-Jan-24 08:30 6.1-2.0
2020-Jan-24 08:25 6.1-2.0
2020-Jan-24 08:20 6.1-2.0
2020-Jan-24 08:15 6.1-2.0
2020-Jan-24 08:10 6.1-1.0
2020-Jan-24 08:05 6.1-1.0
2020-Jan-24 08:00 6.1-1.0
2020-Jan-24 07:55 6.1-0.0
2020-Jan-24 07:52 6.1-0.0
2020-Jan-24 07:50 6.1-0.0
2020-Jan-24 07:45 6.1-0.0
2020-Jan-24 07:40 7.0-0.0
2020-Jan-24 07:35 7.0-0.0
2020-Jan-24 07:30 360 3 6.1-0.0
2020-Jan-24 07:25 360 3 6.1-1.0
2020-Jan-24 07:20 360 3 6.1-1.0
2020-Jan-24 07:15 6.1-0.0
2020-Jan-24 07:10 6.1-1.0
2020-Jan-24 07:05 6.1-1.0
2020-Jan-24 07:00 6.1-0.0
2020-Jan-24 06:55 6.1-1.0
2020-Jan-24 06:52 6.1-1.1
2020-Jan-24 06:50 6.1-1.0
2020-Jan-24 06:45 6.1-1.0
2020-Jan-24 06:40 6.1-1.0
2020-Jan-24 06:35 6.1-1.0
2020-Jan-24 06:30 6.1-1.0
2020-Jan-24 06:25 6.1-0.0
2020-Jan-24 06:20 6.1-0.0
2020-Jan-24 06:15 6.1-1.0
2020-Jan-24 06:10 6.1-1.0
2020-Jan-24 06:05 6.1-1.0
2020-Jan-24 06:00 6.1-1.0
2020-Jan-24 05:55 6.1-1.0
2020-Jan-24 05:52 6.1-0.6
2020-Jan-24 05:50 6.1-0.0
2020-Jan-24 05:45 6.1-0.0
2020-Jan-24 05:40 6.1-0.0
2020-Jan-24 05:35 6.1-0.0
2020-Jan-24 05:30 6.1-1.0
2020-Jan-24 05:25 6.1-1.0
2020-Jan-24 05:20 6.1-0.0
2020-Jan-24 05:15 6.1 1.0
2020-Jan-24 05:10 6.1-0.0
2020-Jan-24 05:05 6.1-0.0
2020-Jan-24 05:00 6.1-0.0
2020-Jan-24 04:55 6.1-0.0
2020-Jan-24 04:52 6.1-0.0
2020-Jan-24 04:50 6.1-0.0
2020-Jan-24 04:45 6.1 1.0
2020-Jan-24 04:40 6.1 1.0
2020-Jan-24 04:35 6.1 1.0
2020-Jan-24 04:30 6.1 1.0
2020-Jan-24 04:25 340 3 6.1 1.0
2020-Jan-24 04:20 360 4 6.1-0.0
2020-Jan-24 04:15 350 3 6.1-0.0
2020-Jan-24 04:10 6.1-0.0
2020-Jan-24 04:05 6.1-0.0
2020-Jan-24 04:00 6.1-0.0
2020-Jan-24 03:55 6.1 1.0
2020-Jan-24 03:52 6.1-0.0
2020-Jan-24 03:50 6.1-0.0
2020-Jan-24 03:45 6.1-0.0
2020-Jan-24 03:40 6.1-0.0
2020-Jan-24 03:35 6.1-0.0
2020-Jan-24 03:30 6.1-0.0
2020-Jan-24 03:25 6.1-0.0
2020-Jan-24 03:20 6.1-0.0
2020-Jan-24 03:15 6.1-0.0
2020-Jan-24 03:10 6.1-0.0
2020-Jan-24 03:05 6.1-1.0
2020-Jan-24 03:00 6.1-0.0
2020-Jan-24 02:55 6.1-0.0
2020-Jan-24 02:52 6.1-0.0
2020-Jan-24 02:50 6.1-0.0
2020-Jan-24 02:45 6.1-0.0
2020-Jan-24 02:40 6.1-0.0
2020-Jan-24 02:35 6.1-0.0
2020-Jan-24 02:30 6.1-0.0
2020-Jan-24 02:25 6.1-0.0
2020-Jan-24 02:20 6.1-0.0
2020-Jan-24 02:15 6.1-0.0
2020-Jan-24 02:10 6.1-0.0
2020-Jan-24 02:05 6.1 1.0
2020-Jan-24 02:00 6.1-1.0
2020-Jan-24 01:55 6.1-1.0
2020-Jan-24 01:52 6.1-0.0
2020-Jan-24 01:50 6.1 1.0
2020-Jan-24 01:45 6.1 1.0
2020-Jan-24 01:40 6.1 1.0
2020-Jan-24 01:35 6.1 1.0
2020-Jan-24 01:30 6.1 1.0
2020-Jan-24 01:25 7.0 1.0
2020-Jan-24 01:20 6.1 1.0
2020-Jan-24 01:15 6.1 1.0
2020-Jan-24 01:10 7.0-0.0
2020-Jan-24 01:05 7.0 2.0
2020-Jan-24 01:00 7.0 1.0
2020-Jan-24 00:55 7.0 1.0
2020-Jan-24 00:52 6.9 1.1
2020-Jan-24 00:50 7.0 1.0
2020-Jan-24 00:45 7.0 2.0
2020-Jan-24 00:40 7.0 1.0
2020-Jan-24 00:35 7.0 1.0
2020-Jan-24 00:30 7.0 1.0
2020-Jan-24 00:25 7.8 2.0
2020-Jan-24 00:20 7.8 2.0
2020-Jan-24 00:15 7.8 1.0
2020-Jan-24 00:10 7.8 1.0
2020-Jan-24 00:05 7.8 1.0
2020-Jan-24 00:00 7.8 1.0
2020-Jan-23 23:55 7.8 2.0
2020-Jan-23 23:52 7.8 2.8
2020-Jan-23 23:50 7.8 3.0
2020-Jan-23 23:45 7.8 3.0
2020-Jan-23 23:40 170 3 7.8 2.0
2020-Jan-23 23:35 170 3 8.7 2.0
2020-Jan-23 23:30 180 3 8.7 2.0
2020-Jan-23 23:25 8.7 1.0
2020-Jan-23 23:20 8.7 1.0
2020-Jan-23 23:15 8.7 1.0
2020-Jan-23 23:10 8.7 1.0
2020-Jan-23 23:05 8.7 2.0
2020-Jan-23 23:00 220 3 8.7 3.0
2020-Jan-23 22:55 230 3 7.8 2.0
2020-Jan-23 22:52 7.8 1.7
2020-Jan-23 22:50 8.7 2.0
2020-Jan-23 22:45 220 3 8.7 3.0
2020-Jan-23 22:40 220 4 8.7 3.0
2020-Jan-23 22:35 220 4 8.7 3.0
2020-Jan-23 22:30 210 3 7.8 2.0
2020-Jan-23 22:25 7.8 2.0
2020-Jan-23 22:20 7.8 2.0
2020-Jan-23 22:15 7.8 3.0
2020-Jan-23 22:10 7.0 3.0
2020-Jan-23 22:05 200 3 6.1 3.0
2020-Jan-23 22:00 200 3 6.1 3.0
2020-Jan-23 21:55 6.1 3.0
2020-Jan-23 21:52 5.2 3.3 Haze.
2020-Jan-23 21:50 5.2 3.0 Haze.
2020-Jan-23 21:45 5.2 3.0 Haze.
2020-Jan-23 21:40 6.1 3.0
2020-Jan-23 21:35 6.1 3.0
2020-Jan-23 21:30 6.1 3.0
2020-Jan-23 21:25 7.0 3.0
2020-Jan-23 21:20 7.0 4.0
2020-Jan-23 21:15 220 3 7.0 4.0
2020-Jan-23 21:10 210 3 7.0 4.0
2020-Jan-23 21:05 220 4 7.8 4.0
2020-Jan-23 21:00 210 5 7.8 4.0
2020-Jan-23 20:55 210 4 7.8 4.0
2020-Jan-23 20:52 200 5 7.8 4.4
2020-Jan-23 20:50 200 5 7.8 4.0
2020-Jan-23 20:45 210 4 7.8 4.0
2020-Jan-23 20:40 210 4 8.7 5.0
2020-Jan-23 20:35 220 4 8.7 5.0
2020-Jan-23 20:30 230 3 8.7 5.0
2020-Jan-23 20:25 8.7 5.0
2020-Jan-23 20:20 8.7 5.0
2020-Jan-23 20:15 230 3 8.7 5.0
2020-Jan-23 20:10 220 4 8.7 5.0
2020-Jan-23 20:05 220 6 8.7 5.0
2020-Jan-23 20:00 220 6 8.7 5.0
2020-Jan-23 19:55 220 6 7.8 5.0
2020-Jan-23 19:52 220 5 7.8 5.0
2020-Jan-23 19:50 220 5 7.8 5.0
2020-Jan-23 19:45 230 5 7.8 5.0
2020-Jan-23 19:40 230 5 7.8 5.0
2020-Jan-23 19:35 220 5 8.7 5.0
2020-Jan-23 19:30 220 5 8.7 4.0
2020-Jan-23 19:25 230 7 8.7 4.0
2020-Jan-23 19:20 220 7 8.7 5.0
2020-Jan-23 19:15 230 6 8.7 5.0
2020-Jan-23 19:10 240 6 8.7 5.0
2020-Jan-23 19:05 240 5 8.7 4.0
2020-Jan-23 19:00 230 5 8.7 4.0
2020-Jan-23 18:55 230 6 8.7 4.0
2020-Jan-23 18:52 240 5 8.7 4.4
2020-Jan-23 18:50 240 5 8.7 4.0
2020-Jan-23 18:45 240 5 8.7 4.0
2020-Jan-23 18:40 240 6 8.7 5.0
2020-Jan-23 18:35 240 6 8.7 4.0
2020-Jan-23 18:30 240 6 8.7 4.0
2020-Jan-23 18:25 230 6 8.7 4.0
2020-Jan-23 18:20 230 7 8.7 4.0
2020-Jan-23 18:15 230 7 7.8 4.0
2020-Jan-23 18:10 230 7 7.8 4.0
2020-Jan-23 18:05 230 6 7.8 4.0
2020-Jan-23 18:00 230 6 7.8 4.0
2020-Jan-23 17:55 230 6 7.8 4.0
2020-Jan-23 17:52 230 6 7.8 3.3
2020-Jan-23 17:50 220 8 7.8 3.0
2020-Jan-23 17:45 230 7 8.7 4.0
2020-Jan-23 17:40 230 8 8.7 4.0
2020-Jan-23 17:35 230 8 8.7 3.0
2020-Jan-23 17:30 230 8 8.7 3.0
2020-Jan-23 17:25 220 8 8.7 3.0
2020-Jan-23 17:20 220 7 8.7 3.0
2020-Jan-23 17:15 220 10 8.7 3.0
2020-Jan-23 17:10 220 10 8.7 3.0
2020-Jan-23 17:05 210 11 8.7 3.0
2020-Jan-23 17:00 220 11 8.7 3.0
2020-Jan-23 16:55 220 10 8.7 3.0
2020-Jan-23 16:52 220 9 8.7 3.3
2020-Jan-23 16:50 220 8 8.7 3.0
2020-Jan-23 16:45 220 9 8.7 3.0
2020-Jan-23 16:40 220 9 8.7 3.0
2020-Jan-23 16:35 210 10 8.7 3.0
2020-Jan-23 16:30 220 9 8.7 3.0
2020-Jan-23 16:25 210 9 8.7 3.0
2020-Jan-23 16:20 220 8 8.7 3.0
2020-Jan-23 16:15 220 8 8.7 3.0
2020-Jan-23 16:10 230 7 8.7 3.0
2020-Jan-23 16:05 230 6 8.7 2.0
2020-Jan-23 16:00 220 6 8.7 2.0
2020-Jan-23 15:55 220 7 8.7 2.0
2020-Jan-23 15:52 230 6 8.7 2.8
2020-Jan-23 15:50 230 7 8.7 3.0
2020-Jan-23 15:45 230 5 8.7 2.0
2020-Jan-23 15:40 230 6 8.7 2.0
2020-Jan-23 15:35 230 5 8.7 2.0
2020-Jan-23 15:30 230 5 8.7 2.0
2020-Jan-23 15:25 230 5 8.7 2.0
2020-Jan-23 15:20 230 5 8.7 2.0
2020-Jan-23 15:15 240 4 8.7 2.0
2020-Jan-23 15:10 230 4 8.7 2.0
2020-Jan-23 15:05 230 3 8.7 2.0
2020-Jan-23 15:00 220 4 8.7 2.0
2020-Jan-23 14:55 220 4 8.7 2.0
2020-Jan-23 14:52 250 2 8.7 1.7
2020-Jan-23 14:50 250 3 8.7 1.0
2020-Jan-23 14:45 250 3 8.7 1.0
2020-Jan-23 14:40 250 3 8.7 1.0
2020-Jan-23 14:35 260 3 8.7 1.0
2020-Jan-23 14:30 260 3 8.7 1.0
2020-Jan-23 14:25 8.7 1.0
2020-Jan-23 14:20 8.7-0.0
2020-Jan-23 14:15 8.7-0.0
2020-Jan-23 14:10 260 3 8.7-0.0
2020-Jan-23 14:05 7.8-0.0
2020-Jan-23 14:00 7.8-1.0
2020-Jan-23 13:55 8.7-1.0
2020-Jan-23 13:52 8.7-0.6
2020-Jan-23 13:50 8.7-1.0
2020-Jan-23 13:45 8.7-1.0
2020-Jan-23 13:40 8.7-2.0
2020-Jan-23 13:35 8.7-2.0
2020-Jan-23 13:30 7.8-2.0
2020-Jan-23 13:25 7.8-2.0
2020-Jan-23 13:20 7.8-3.0
2020-Jan-23 13:15 7.8-3.0
2020-Jan-23 13:10 7.8-4.0
2020-Jan-23 13:05 7.8-4.0
2020-Jan-23 13:00 7.8-5.0
2020-Jan-23 12:55 7.8-5.0
2020-Jan-23 12:52 7.8-5.0
2020-Jan-23 12:50 7.8-5.0
2020-Jan-23 12:45 7.8-5.0
2020-Jan-23 12:40 360 3 7.0-6.0
2020-Jan-23 12:35 350 3 7.0-6.0
2020-Jan-23 12:30 350 4 7.8-6.0
2020-Jan-23 12:25 350 4 7.8-6.0
2020-Jan-23 12:20 340 4 7.8-6.0
2020-Jan-23 12:15 7.8-7.0
2020-Jan-23 12:10 7.8-6.0
2020-Jan-23 12:05 7.8-6.0
2020-Jan-23 12:00 7.8-6.0
2020-Jan-23 11:55 7.8-6.0
2020-Jan-23 11:52 8.7-6.1
2020-Jan-23 11:50 8.7-7.0
2020-Jan-23 11:45 8.7-7.0
2020-Jan-23 11:40 8.7-6.0
2020-Jan-23 11:35 8.7-6.0
2020-Jan-23 11:30 8.7-6.0
2020-Jan-23 11:25 8.7-6.0
2020-Jan-23 11:20 7.8-6.0
2020-Jan-23 11:15 8.7-6.0
2020-Jan-23 11:10 7.8-6.0
2020-Jan-23 11:05 7.8-6.0
2020-Jan-23 11:00 7.0-6.0
2020-Jan-23 10:55 310 3 7.8-5.0
2020-Jan-23 10:52 310 2 8.7-5.0
2020-Jan-23 10:50 320 3 8.7-5.0
2020-Jan-23 10:45 8.7-5.0
2020-Jan-23 10:40 8.7-6.0
2020-Jan-23 10:35 8.7-5.0
2020-Jan-23 10:30 8.7-5.0
2020-Jan-23 10:25 8.7-6.0
2020-Jan-23 10:20 8.7-6.0
2020-Jan-23 10:15 8.7-6.0
2020-Jan-23 10:10 8.7-5.0
2020-Jan-23 10:05 8.7-6.0
2020-Jan-23 10:00 8.7-5.0
2020-Jan-23 09:55 8.7-5.0
2020-Jan-23 09:52 340 2 8.7-5.0
2020-Jan-23 09:50 8.7-5.0
2020-Jan-23 09:45 8.7-5.0
2020-Jan-23 09:40 340 3 8.7-6.0
2020-Jan-23 09:35 350 3 8.7-5.0
2020-Jan-23 09:30 340 3 8.7-5.0
2020-Jan-23 09:25 8.7-4.0
2020-Jan-23 09:20 8.7-5.0
2020-Jan-23 09:15 330 3 8.7-4.0
2020-Jan-23 09:10 8.7-5.0
2020-Jan-23 09:05 8.7-6.0
2020-Jan-23 09:00 8.7-6.0
2020-Jan-23 08:55 8.7-6.0
2020-Jan-23 08:52 8.7-6.1
2020-Jan-23 08:50 8.7-6.0
2020-Jan-23 08:45 8.7-6.0
2020-Jan-23 08:40 8.7-6.0
2020-Jan-23 08:35 8.7-5.0
2020-Jan-23 08:30 8.7-5.0
2020-Jan-23 08:25 8.7-6.0
2020-Jan-23 08:20 8.7-6.0
2020-Jan-23 08:15 8.7-5.0
2020-Jan-23 08:10 8.7-5.0
2020-Jan-23 08:05 8.7-4.0
2020-Jan-23 08:00 8.7-4.0
2020-Jan-23 07:55 8.7-4.0
2020-Jan-23 07:52 8.7-4.4
2020-Jan-23 07:50 8.7-4.0
2020-Jan-23 07:45 8.7-5.0
2020-Jan-23 07:40 8.7-5.0
2020-Jan-23 07:35 7.8-4.0
2020-Jan-23 07:30 7.8-4.0
2020-Jan-23 07:25 7.8-4.0
2020-Jan-23 07:20 350 3 7.8-4.0
2020-Jan-23 07:15 350 3 7.8-4.0
2020-Jan-23 07:10 350 3 8.7-4.0
2020-Jan-23 07:05 340 3 8.7-4.0
2020-Jan-23 07:00 8.7-4.0
2020-Jan-23 06:55 8.7-4.0
2020-Jan-23 06:52 8.7-4.4
2020-Jan-23 06:50 8.7-4.0
2020-Jan-23 06:45 8.7-4.0
2020-Jan-23 06:40 8.7-4.0
2020-Jan-23 06:35 8.7-4.0
2020-Jan-23 06:30 8.7-4.0
2020-Jan-23 06:25 8.7-4.0
2020-Jan-23 06:20 8.7-4.0
2020-Jan-23 06:15 8.7-4.0
2020-Jan-23 06:10 7.8-4.0
2020-Jan-23 06:05 7.8-4.0
2020-Jan-23 06:00 7.8-4.0
2020-Jan-23 05:55 7.8-4.0
2020-Jan-23 05:52 7.8-3.9
2020-Jan-23 05:50 8.7-4.0
2020-Jan-23 05:45 8.7-4.0
2020-Jan-23 05:40 7.8-4.0
2020-Jan-23 05:35 7.8-4.0
2020-Jan-23 05:30 7.8-4.0
2020-Jan-23 05:25 7.8-3.0
2020-Jan-23 05:20 7.8-3.0
2020-Jan-23 05:15 7.8-3.0
2020-Jan-23 05:10 7.8-4.0
2020-Jan-23 05:05 7.8-4.0
2020-Jan-23 05:00 8.7-4.0
2020-Jan-23 04:55 8.7-4.0
2020-Jan-23 04:52 8.7-4.4
2020-Jan-23 04:50 8.7-4.0
2020-Jan-23 04:45 8.7-5.0
2020-Jan-23 04:40 8.7-4.0
2020-Jan-23 04:35 8.7-4.0
2020-Jan-23 04:30 8.7-4.0
2020-Jan-23 04:25 8.7-4.0
2020-Jan-23 04:20 8.7-3.0
2020-Jan-23 04:15 8.7-4.0
2020-Jan-23 04:10 8.7-3.0
2020-Jan-23 04:05 8.7-3.0
2020-Jan-23 04:00 8.7-3.0
2020-Jan-23 03:55 7.8-3.0
2020-Jan-23 03:52 7.8-3.3
2020-Jan-23 03:50 7.8-3.0
2020-Jan-23 03:45 8.7-3.0
2020-Jan-23 03:40 8.7-4.0
2020-Jan-23 03:35 8.7-4.0
2020-Jan-23 03:30 8.7-4.0
2020-Jan-23 03:25 8.7-4.0
2020-Jan-23 03:20 8.7-4.0
2020-Jan-23 03:15 8.7-4.0
2020-Jan-23 03:10 8.7-4.0
2020-Jan-23 03:05 8.7-3.0
2020-Jan-23 03:00 8.7-3.0
2020-Jan-23 02:55 8.7-3.0
2020-Jan-23 02:52 8.7-3.3
2020-Jan-23 02:50 8.7-3.0
2020-Jan-23 02:45 8.7-4.0
2020-Jan-23 02:40 8.7-4.0
2020-Jan-23 02:35 8.7-3.0
2020-Jan-23 02:30 8.7-3.0
2020-Jan-23 02:25 8.7-3.0
2020-Jan-23 02:20 8.7-3.0
2020-Jan-23 02:15 8.7-3.0
2020-Jan-23 02:10 8.7-2.0
2020-Jan-23 02:05 8.7-3.0
2020-Jan-23 02:00 8.7-3.0
2020-Jan-23 01:55 8.7-2.0
2020-Jan-23 01:52 8.7-2.2
2020-Jan-23 01:50 8.7-2.0
2020-Jan-23 01:45 8.7-2.0
2020-Jan-23 01:40 8.7-2.0
2020-Jan-23 01:35 8.7-3.0
2020-Jan-23 01:30 8.7-3.0
2020-Jan-23 01:25 8.7-3.0
2020-Jan-23 01:20 8.7-2.0
2020-Jan-23 01:15 8.7-3.0
2020-Jan-23 01:10 8.7-2.0
2020-Jan-23 01:05 8.7-1.0
2020-Jan-23 01:00 8.7-2.0
2020-Jan-23 00:55 8.7-2.0
2020-Jan-23 00:52 8.7-2.2
2020-Jan-23 00:50 8.7-2.0
2020-Jan-23 00:45 8.7-3.0
2020-Jan-23 00:40 8.7-3.0
2020-Jan-23 00:35 8.7-2.0
2020-Jan-23 00:30 8.7-2.0
2020-Jan-23 00:25 8.7-2.0
2020-Jan-23 00:20 8.7-1.0
2020-Jan-23 00:15 8.7 1.0
2020-Jan-23 00:10 8.7 1.0
2020-Jan-23 00:05 8.7 1.0
2020-Jan-23 00:00 8.7-0.0
2020-Jan-22 23:55 290 3 8.7-0.0
2020-Jan-22 23:52 290 2 8.7-0.0
2020-Jan-22 23:50 280 3 8.7-0.0
2020-Jan-22 23:45 280 4 8.7-0.0
2020-Jan-22 23:40 280 3 8.7-0.0
2020-Jan-22 23:35 280 3 8.7-1.0
2020-Jan-22 23:30 8.7-0.0
2020-Jan-22 23:25 270 3 8.7 1.0
2020-Jan-22 23:20 270 3 8.7-0.0
2020-Jan-22 23:15 270 3 8.7-0.0
2020-Jan-22 23:10 270 3 8.7-0.0
2020-Jan-22 23:05 270 3 8.7-0.0
2020-Jan-22 23:00 8.7-1.0
2020-Jan-22 22:55 270 3 8.7-0.0
2020-Jan-22 22:52 260 2 8.7 0.6
2020-Jan-22 22:50 250 3 8.7 1.0
2020-Jan-22 22:45 250 3 8.7 1.0
2020-Jan-22 22:40 250 3 8.7 1.0
2020-Jan-22 22:35 8.7-0.0
2020-Jan-22 22:30 260 4 8.7-0.0
2020-Jan-22 22:25 260 4 8.7 1.0
2020-Jan-22 22:20 250 4 8.7 1.0
2020-Jan-22 22:15 240 3 8.7 1.0
2020-Jan-22 22:10 250 3 8.7 1.0
2020-Jan-22 22:05 260 4 8.7 1.0
2020-Jan-22 22:00 250 4 8.7 1.0
2020-Jan-22 21:55 250 3 8.7 1.0
2020-Jan-22 21:52 250 4 8.7 1.1
2020-Jan-22 21:50 250 4 8.7 2.0
2020-Jan-22 21:45 250 4 8.7 2.0
2020-Jan-22 21:40 240 4 8.7 2.0
2020-Jan-22 21:35 240 4 8.7 2.0
2020-Jan-22 21:30 220 6 8.7 2.0
2020-Jan-22 21:25 220 6 8.7 2.0
2020-Jan-22 21:20 230 5 8.7 2.0
2020-Jan-22 21:15 230 5 8.7 2.0
2020-Jan-22 21:10 230 7 8.7 2.0
2020-Jan-22 21:05 220 7 8.7 2.0
2020-Jan-22 21:00 230 6 8.7 2.0
2020-Jan-22 20:55 240 6 8.7 3.0
2020-Jan-22 20:52 230 6 8.7 2.8
2020-Jan-22 20:50 220 7 8.7 2.0
2020-Jan-22 20:45 220 8 8.7 3.0
2020-Jan-22 20:40 220 7 8.7 3.0
2020-Jan-22 20:35 230 6 8.7 3.0
2020-Jan-22 20:30 220 6 8.7 3.0
2020-Jan-22 20:25 230 7 8.7 2.0
2020-Jan-22 20:20 230 7 8.7 2.0
2020-Jan-22 20:15 230 8 8.7 2.0
2020-Jan-22 20:10 230 8 8.7 2.0
2020-Jan-22 20:05 230 8 8.7 2.0
2020-Jan-22 20:00 220 9 8.7 2.0
2020-Jan-22 19:55 230 8 8.7 2.0
2020-Jan-22 19:52 220 11 8.7 2.2
2020-Jan-22 19:50 220 9 8.7 2.0
2020-Jan-22 19:45 220 10 8.7 2.0
2020-Jan-22 19:40 220 11 8.7 2.0
2020-Jan-22 19:35 220 11 8.7 2.0
2020-Jan-22 19:30 220 10 8.7 2.0
2020-Jan-22 19:25 220 11 8.7 2.0
2020-Jan-22 19:20 210 10 8.7 2.0
2020-Jan-22 19:15 220 11 8.7 2.0
2020-Jan-22 19:10 210 10 8.7 2.0
2020-Jan-22 19:05 220 10 8.7 2.0
2020-Jan-22 19:00 220 9 8.7 2.0
2020-Jan-22 18:55 230 8 8.7 2.0
2020-Jan-22 18:52 220 8 8.7 1.1
2020-Jan-22 18:50 210 10 8.7 1.0
2020-Jan-22 18:45 220 10 8.7 1.0
2020-Jan-22 18:40 220 10 8.7 1.0
2020-Jan-22 18:35 200 10 8.7 1.0
2020-Jan-22 18:30 220 10 8.7 1.0
2020-Jan-22 18:25 210 9 8.7 1.0
2020-Jan-22 18:20 220 8 8.7 1.0
2020-Jan-22 18:15 220 8 8.7 1.0
2020-Jan-22 18:10 210 8 8.7 1.0
2020-Jan-22 18:05 210 9 8.7 1.0
2020-Jan-22 18:00 210 9 8.7 1.0
2020-Jan-22 17:55 210 8 8.7 1.0
2020-Jan-22 17:52 220 7 8.7 0.6
2020-Jan-22 17:50 210 8 8.7 1.0
2020-Jan-22 17:45 210 8 8.7 1.0
2020-Jan-22 17:40 210 8 8.7 1.0
2020-Jan-22 17:35 220 7 8.7 1.0
2020-Jan-22 17:30 210 8 8.7 1.0
2020-Jan-22 17:25 210 8 8.7 1.0
2020-Jan-22 17:20 210 9 8.7 1.0
2020-Jan-22 17:15 210 7 8.7 1.0
2020-Jan-22 17:10 220 6 8.7 1.0
2020-Jan-22 17:05 210 6 8.7-0.0
2020-Jan-22 17:00 210 7 8.7-0.0
2020-Jan-22 16:55 210 7 8.7 1.0
2020-Jan-22 16:52 8.7 0.6
2020-Jan-22 16:50 8.7 1.0
2020-Jan-22 16:45 220 4 8.7 1.0
2020-Jan-22 16:40 290 4 8.7 1.0
2020-Jan-22 16:35 300 5 8.7 1.0
2020-Jan-22 16:30 320 5 8.7 1.0
2020-Jan-22 16:25 350 5 8.7 1.0
2020-Jan-22 16:20 330 5 8.7 1.0
2020-Jan-22 16:15 300 7 8.7 1.0
2020-Jan-22 16:10 300 4 8.7 1.0
2020-Jan-22 16:05 300 4 8.7 1.0
2020-Jan-22 16:00 240 4 8.7-0.0
2020-Jan-22 15:55 250 5 8.7-0.0
2020-Jan-22 15:52 240 5 8.7-0.0
2020-Jan-22 15:50 250 3 8.7-0.0
2020-Jan-22 15:45 340 4 8.7-0.0
2020-Jan-22 15:40 270 5 8.7-0.0
2020-Jan-22 15:35 270 4 8.7-0.0
2020-Jan-22 15:30 330 3 8.7-0.0
2020-Jan-22 15:25 300 4 8.7-0.0
2020-Jan-22 15:20 8.7-0.0
2020-Jan-22 15:15 8.7-0.0
2020-Jan-22 15:10 8.7-0.0
2020-Jan-22 15:05 8.7-1.0
2020-Jan-22 15:00 8.7-1.0
2020-Jan-22 14:55 8.7-2.0
2020-Jan-22 14:52 310 2 8.7-1.7
2020-Jan-22 14:50 290 3 8.7-1.0
2020-Jan-22 14:45 310 4 8.7-1.0
2020-Jan-22 14:40 320 4 8.7-2.0
2020-Jan-22 14:35 330 4 8.7-1.0
2020-Jan-22 14:30 310 4 8.7-2.0
2020-Jan-22 14:25 330 4 8.7-2.0
2020-Jan-22 14:20 340 4 8.7-2.0
2020-Jan-22 14:15 320 3 8.7-2.0
2020-Jan-22 14:10 330 3 8.7-2.0
2020-Jan-22 14:05 330 3 8.7-3.0
2020-Jan-22 14:00 320 3 8.7-3.0